ARIANE 5 DEB (SYLDA), 45247

Orbit data source: Space-Track

ARIANE 5 DEB (SYLDA), 45247 is space debris in HEO originally from a launch on Tue, 18 Feb 2020 UTC launched from the French Guiana (FRGUI). Debris objects in space refer to the collection of defunct objects orbiting the Earth. Examples of debris include non-operational satellites, rocket bodies, and fragments generated from explosions, collisions, or faulty payload assembly.

Loading next visibility...
Identifier
45247, 2020-013C
Orbit
HEO
Last TLE update
20 hours ago
Origin
Manufacturer
ADS/Bremen
Mission
Spacecraft
Bus & Motor
SYLDA 5, Unknown motor
Mass
440 kg wet, 440 kg dry
Launch date (UTC)
2020-02-18 (5 years ago)
Launch vehicle
Unknown
Launch site
French Guiana (FRGUI)
Object type
Payload
Rocket body
Debris
Shape & HBR
Cyl, Unknown HBR
Radar Cross Section
27.391 m², Large (>1 m²)

Expand to show TLE details & history

TLE from 20 hours ago
0 ARIANE 5 DEB (SYLDA)
1 45247U 20013C   25191.50565935  .00005562  00000-0  19213-2 0  9990
2 45247   5.7294  48.5186 6430795 317.9980   7.4736  3.39431258 52152
Epoch: 2025-07-10T12:08Z
TLE epoch observation values (Epoch: 2025-07-10T12:08:08.967Z)
Latitude
0.00032°
Longitude
-62.28988°
Altitude
1,055.494 km
Speed
9.269 km/s
True Right ascension
03h 13m 40s
True Declination
0° 00' 01"
Sunlit
Object was in daylight at epoch
Visualization orbit readout
Latitude
-2.39445°
Longitude
141.64111°
Altitude
8,614.023 km
Speed
5.644 km/s
Apparent Right ascension
15h 34m 50s
Apparent Declination
-19° 38' 32"
Sunlit
Object is in daylight
Visualization observer readout
Local Sidereal Time
20:45:54
Azimuth
247.255° WSW
Elevation
-3.591°
Doppler factor
1
Orbital elements
Apogee altitude
24,360.132 km
Perigee altitude
299.031 km
Semi-major axis
18,707.719 km
Eccentricity
0.64308
Inclination
5.7294°
RAAN
48.5186°
Arg. of periapsis
317.998°
True anomaly
Unknown
Mean anomaly
7.4736°
Eccentric anomaly
Unknown
Mean motion
0.84823 °/min
Orbital period
424.41 mins
BSTAR
0.0019213
Loading maneuver chart data...
Loading SW <> Apogee altitude chart data...
Loading historical data...
Loading historical data...
Loading historical data...
Loading historical data...
Loading historical data...
Loading historical data...
Loading historical data...
Other satellites on launch #13 in the year 2020 (2020-02-18 UTC)

ARIANE 5 DEB (SYLDA) Visibility forecast

Observer location: undefined°, undefined°

Span
Click to sort rows by Start time (UTC) header in descending order
Start Az.
Max El. time (UTC)
Max El. Az.
Max El.
End time (UTC)
End Az.
72 mins2025-07-11 16:35:21.406Z164.764° S2025-07-11 16:47:21.406Z134.636° SE15.29°2025-07-11 17:47:21.406Z105.426° ESE
338 mins2025-07-12 00:21:21.406Z249.764° W2025-07-12 02:18:21.406Z236.355° WSW25.416°2025-07-12 05:59:21.406Z175.401° S
|